• In Netherlands
  • List of Countries
  • For 7 days
  • Water Temperature
  • Satellite Maps
  • Weather Map
  • Weather Widgets
  • user-avatar
    Login

    Hourly Weather Ghent

    Today, 16 January, Tuesday

    Time Temperature Precipitation Wind Pressure Humidity
    00:00 +4°C° 0 mm 6 mps 745 mmHg 86%
    01:00 +4°C° 0.2 mm 6 mps 745 mmHg 85%
    02:00 +4°C° 0.2 mm 7 mps 744 mmHg 84%
    03:00 +4°C° 0.2 mm 8 mps 744 mmHg 83%
    04:00 +4°C° 0.5 mm 8 mps 744 mmHg 82%
    05:00 +5°C° 0.5 mm 8 mps 743 mmHg 82%
    06:00 +4°C° 0 mm 8 mps 744 mmHg 84%
    07:00 +4°C° 0.3 mm 8 mps 744 mmHg 80%
    08:00 +3°C° 0.3 mm 9 mps 744 mmHg 77%
    09:00 +3°C° 0.3 mm 9 mps 745 mmHg 73%
    10:00 +5°C° 0.1 mm 9 mps 745 mmHg 69%
    11:00 +5°C° 0.1 mm 10 mps 745 mmHg 65%
    12:00 +6°C° 0.1 mm 10 mps 746 mmHg 61%
    13:00 +5°C° 0.1 mm 9 mps 746 mmHg 62%
    14:00 +5°C° 0.1 mm 9 mps 745 mmHg 62%
    15:00 +5°C° 0.1 mm 8 mps 745 mmHg 63%
    16:00 +4°C° 0.1 mm 8 mps 745 mmHg 65%
    17:00 +4°C° 0.1 mm 7 mps 745 mmHg 67%
    18:00 +3°C° 0.1 mm 7 mps 744 mmHg 70%
    19:00 +3°C° 0.1 mm 7 mps 744 mmHg 70%
    20:00 +3°C° 0.1 mm 7 mps 744 mmHg 70%
    21:00 +3°C° 0.1 mm 7 mps 744 mmHg 70%
    22:00 +1°C° 0.1 mm 8 mps 744 mmHg 68%
    23:00 +1°C° 0.1 mm 8 mps 744 mmHg 67%

    Tomorrow, 17 January, Wednesday

    Time Temperature Precipitation Wind Pressure Humidity
    00:00 +1°C° 0.1 mm 8 mps 744 mmHg 65%
    01:00 +1°C° 0.1 mm 8 mps 745 mmHg 64%
    02:00 0°C° 0.1 mm 9 mps 745 mmHg 64%
    03:00 0°C° 0.1 mm 9 mps 746 mmHg 63%
    04:00 0°C° 0.2 mm 9 mps 746 mmHg 62%
    05:00 0°C° 0.2 mm 9 mps 747 mmHg 62%
    06:00 -1°C° 0.2 mm 9 mps 748 mmHg 61%
    07:00 0°C° 0.1 mm 9 mps 749 mmHg 62%
    08:00 0°C° 0.1 mm 10 mps 749 mmHg 63%
    09:00 +1°C° 0.1 mm 10 mps 750 mmHg 64%
    10:00 +1°C° 0.1 mm 11 mps 751 mmHg 62%
    11:00 +2°C° 0.1 mm 11 mps 751 mmHg 60%
    12:00 +3°C° 0.1 mm 12 mps 752 mmHg 58%
    13:00 +3°C° 0.1 mm 11 mps 752 mmHg 60%
    14:00 +3°C° 0.1 mm 11 mps 753 mmHg 62%
    15:00 +3°C° 0.1 mm 10 mps 754 mmHg 64%
    16:00 +2°C° 0.1 mm 9 mps 754 mmHg 64%
    17:00 +2°C° 0.1 mm 9 mps 755 mmHg 65%
    18:00 +1°C° 0.1 mm 8 mps 755 mmHg 65%
    19:00 +1°C° 0 mm 8 mps 756 mmHg 66%
    20:00 +2°C° 0 mm 7 mps 756 mmHg 66%
    21:00 +2°C° 0 mm 7 mps 756 mmHg 67%
    22:00 +2°C° 0.4 mm 7 mps 755 mmHg 71%
    23:00 +2°C° 0.4 mm 7 mps 754 mmHg 76%

    Day after tomorrow, 18 January, Thursday

    Time Temperature Precipitation Wind Pressure Humidity
    00:00 +2°C° 0.4 mm 6 mps 753 mmHg 80%
    01:00 +2°C° 2.2 mm 9 mps 751 mmHg 81%
    02:00 +3°C° 2.2 mm 11 mps 749 mmHg 83%
    03:00 +4°C° 2.2 mm 13 mps 747 mmHg 84%
    04:00 +7°C° 0.6 mm 13 mps 746 mmHg 82%
    05:00 +8°C° 0.6 mm 13 mps 746 mmHg 81%
    06:00 +9°C° 0.6 mm 14 mps 745 mmHg 80%
    07:00 +8°C° 0 mm 13 mps 745 mmHg 76%
    08:00 +7°C° 0 mm 13 mps 746 mmHg 73%
    09:00 +5°C° 0 mm 13 mps 746 mmHg 70%
    10:00 +5°C° 0 mm 12 mps 747 mmHg 67%
    11:00 +6°C° 0 mm 11 mps 748 mmHg 64%
    12:00 +6°C° 0 mm 10 mps 749 mmHg 61%
    13:00 +6°C° 0 mm 8 mps 749 mmHg 64%
    14:00 +7°C° 0 mm 6 mps 749 mmHg 66%
    15:00 +7°C° 0 mm 5 mps 749 mmHg 69%
    16:00 +6°C° 0.2 mm 5 mps 749 mmHg 73%
    17:00 +6°C° 0.2 mm 5 mps 749 mmHg 77%
    18:00 +5°C° 0.2 mm 5 mps 749 mmHg 81%
    19:00 +5°C° 0.3 mm 5 mps 749 mmHg 80%
    20:00 +5°C° 0.3 mm 5 mps 749 mmHg 80%
    21:00 +3°C° 0.3 mm 5 mps 750 mmHg 79%
    22:00 +3°C° 0.2 mm 5 mps 750 mmHg 79%
    23:00 +3°C° 0.2 mm 6 mps 751 mmHg 79%

    19 January, Friday

    Time Temperature Precipitation Wind Pressure Humidity
    00:00 +2°C° 0.2 mm 6 mps 751 mmHg 79%
    01:00 +2°C° 0.1 mm 5 mps 751 mmHg 80%
    02:00 +1°C° 0.1 mm 5 mps 751 mmHg 80%
    03:00 +1°C° 0.1 mm 5 mps 752 mmHg 81%
    04:00 +1°C° 0 mm 5 mps 752 mmHg 81%
    05:00 0°C° 0 mm 5 mps 752 mmHg 82%
    06:00 0°C° 0 mm 5 mps 752 mmHg 82%
    07:00 0°C° 0.1 mm 5 mps 752 mmHg 81%
    08:00 +1°C° 0.1 mm 5 mps 752 mmHg 80%
    09:00 +1°C° 0.1 mm 5 mps 753 mmHg 79%
    10:00 +2°C° 0.1 mm 5 mps 752 mmHg 74%
    11:00 +2°C° 0.1 mm 6 mps 752 mmHg 69%
    12:00 +3°C° 0.1 mm 6 mps 752 mmHg 65%
    13:00 +3°C° 0.1 mm 6 mps 752 mmHg 66%
    14:00 +3°C° 0.1 mm 5 mps 752 mmHg 67%
    15:00 +2°C° 0.1 mm 5 mps 752 mmHg 69%
    16:00 +1°C° 0.1 mm 5 mps 752 mmHg 71%
    17:00 +1°C° 0.1 mm 5 mps 752 mmHg 74%
    18:00 0°C° 0.1 mm 5 mps 752 mmHg 76%
    19:00 0°C° 0.3 mm 5 mps 752 mmHg 77%
    20:00 0°C° 0.3 mm 5 mps 752 mmHg 77%
    21:00 0°C° 0.3 mm 5 mps 752 mmHg 78%
    22:00 0°C° 0.3 mm 5 mps 752 mmHg 79%
    23:00 0°C° 0.3 mm 5 mps 752 mmHg 80%

    20 January, Saturday

    Time Temperature Precipitation Wind Pressure Humidity
    00:00 -1°C° 0.3 mm 5 mps 752 mmHg 81%
    01:00 -1°C° 0.2 mm 5 mps 753 mmHg 82%
    02:00 -1°C° 0.2 mm 4 mps 753 mmHg 82%
    03:00 -1°C° 0.2 mm 4 mps 753 mmHg 82%
    04:00 -2°C° 0 mm 4 mps 753 mmHg 83%
    05:00 -2°C° 0 mm 4 mps 753 mmHg 84%
    06:00 -2°C° 0 mm 4 mps 754 mmHg 84%
    07:00 -2°C° 0.1 mm 4 mps 754 mmHg 84%
    08:00 -1°C° 0.1 mm 4 mps 754 mmHg 84%
    09:00 -1°C° 0.1 mm 4 mps 755 mmHg 84%
    10:00 0°C° 0.1 mm 4 mps 755 mmHg 81%
    11:00 +1°C° 0.1 mm 5 mps 755 mmHg 79%
    12:00 +2°C° 0.1 mm 5 mps 756 mmHg 77%
    13:00 +3°C° 0.1 mm 4 mps 756 mmHg 78%
    14:00 +3°C° 0.1 mm 4 mps 756 mmHg 80%
    15:00 +3°C° 0.1 mm 3 mps 756 mmHg 81%
    16:00 +2°C° 0 mm 3 mps 757 mmHg 83%
    17:00 +2°C° 0 mm 2 mps 758 mmHg 84%
    18:00 +1°C° 0 mm 2 mps 758 mmHg 86%
    19:00 +1°C° 0 mm 2 mps 759 mmHg 86%
    20:00 +1°C° 0 mm 2 mps 759 mmHg 86%
    21:00 +1°C° 0 mm 2 mps 760 mmHg 86%
    22:00 -1°C° 0 mm 2 mps 760 mmHg 86%
    23:00 -1°C° 0 mm 2 mps 760 mmHg 86%

    21 January, Sunday

    Time Temperature Precipitation Wind Pressure Humidity
    00:00 -1°C° 0 mm 2 mps 761 mmHg 86%
    01:00 -1°C° 0 mm 2 mps 761 mmHg 86%
    02:00 -1°C° 0 mm 2 mps 762 mmHg 87%
    03:00 -1°C° 0 mm 2 mps 762 mmHg 87%
    04:00 -1°C° 0 mm 2 mps 762 mmHg 87%
    05:00 -1°C° 0 mm 2 mps 763 mmHg 87%
    06:00 -1°C° 0 mm 2 mps 763 mmHg 88%
    07:00 -1°C° 0 mm 2 mps 763 mmHg 87%
    08:00 +1°C° 0 mm 2 mps 764 mmHg 86%
    09:00 +1°C° 0 mm 2 mps 764 mmHg 85%
    10:00 +2°C° 0 mm 2 mps 764 mmHg 83%
    11:00 +3°C° 0 mm 2 mps 765 mmHg 80%
    12:00 +4°C° 0 mm 2 mps 765 mmHg 77%
    13:00 +4°C° 0 mm 2 mps 765 mmHg 78%
    14:00 +3°C° 0 mm 2 mps 765 mmHg 79%
    15:00 +3°C° 0 mm 2 mps 765 mmHg 80%
    16:00 +2°C° 0 mm 2 mps 765 mmHg 82%
    17:00 +1°C° 0 mm 2 mps 766 mmHg 84%
    18:00 -1°C° 0 mm 2 mps 766 mmHg 86%
    19:00 -1°C° 0 mm 3 mps 766 mmHg 87%
    20:00 -1°C° 0 mm 3 mps 766 mmHg 87%
    21:00 -1°C° 0 mm 3 mps 766 mmHg 88%
    22:00 -2°C° 0 mm 4 mps 766 mmHg 88%
    23:00 -2°C° 0 mm 4 mps 766 mmHg 87%
    Show more